Regional Weather Roundup
Issued by NWS

Home | Current Version | Previous Version | Graphics & Text | Print | Product List | Glossary On
Versions: 1 2 3 4 5 6 7 8 9 10 11 12 13 14 15 16 17 18 19 20 21 22 23 24 25 26 27
000
ASUS45 KBOU 242207
RWRCO

WEATHER ROUNDUP FOR COLORADO
NATIONAL WEATHER SERVICE DENVER/BOULDER CO
400 PM MDT MON JUL 24 2017

NOTE: "FAIR" INDICATES FEW OR NO CLOUDS BELOW 12000 FEET WITH NO
SIGNIFICANT WEATHER AND/OR OBSTRUCTIONS TO VISIBILITY.

COZ001>005-013-030-031-242300-
...NORTHWEST COLORADO...

CITY           SKY/WX    TMP DP  RH WIND       PRES   REMARKS
CRAIG          FAIR      94  36  13 NW10      30.10F
HAYDEN         FAIR     N/A N/A N/A W10       30.14F
MEEKER         FAIR      86  40  19 S5        30.13F
RABBIT EARS PA FAIR      70  37  30 SW5       30.51F
STEAMBOAT SPGS FAIR      87  39  18 NW3       30.17F
WALDEN         FAIR      81  32  17 N14G21    30.29F
$$

COZ006>008-011-242300-
...WEST CENTRAL VALLEYS...

CITY           SKY/WX    TMP DP  RH WIND       PRES   REMARKS
GRAND JUNCTION FAIR      93  45  19 VRB7      29.99F
MONTROSE       FAIR      90  47  22 NW10      30.08F
EAGLE          MOSUNNY   90  43  19 NW10      30.14F
RIFLE          FAIR      94  39  14 NW6       30.04F
DELTA          FAIR      97  41  14 S7        30.03F
NUCLA          FAIR      88  45  22 S12       30.13F
$$

COZ017>023-064>068-242300-
...SOUTHWEST COLORADO...

CITY           SKY/WX    TMP DP  RH WIND       PRES   REMARKS
DURANGO        FAIR      82  47  29 SW6       30.17F
CORTEZ         PTSUNNY   89  48  24 SW10      30.10F
PAGOSA SPRINGS PTSUNNY   72  45  38 NE16G24   30.29S
TELLURIDE      CLOUDY    70  51  50 CALM      30.41F
WOLF CREEK PAS RAIN      46  45  93 SE7       30.69R
$$

COZ009-010-012-014-032>034-037-058>063-242300-
...CENTRAL COLORADO...

CITY           SKY/WX    TMP DP  RH WIND       PRES   REMARKS
ASPEN          FAIR      84  40  21 NW9       30.23F
BUENA VISTA    PTSUNNY   73  41  31 NW24G38   30.28R
COPPER MTN     FAIR      68  30  24 NW6       30.64S
BERTHOUD PASS  CLOUDY    55  41  58 S6        30.68S
COTTONWOOD PAS PTSUNNY   72  32  23 CALM      30.44S
GUNNISON       FAIR      83  42  23 SW6       30.23F
KREMMLING      FAIR      88  30  12 N8        30.23F
LEADVILLE      PTSUNNY   70  34  26 SW9       30.40F
MONARCH PASS   CLOUDY    55  37  50 SE3       30.74R
SALIDA         CLOUDY    83  45  26 S10       30.30S
SUNLIGHT       PTSUNNY   64  36  34 CALM      30.55F
WILKERSON PASS CLOUDY    64  32  29 NE5       30.60S
$$

COZ069>075-242300-
...SAN LUIS VALLEY/SANGRE DE CRISTO MOUNTAINS...

CITY           SKY/WX    TMP DP  RH WIND       PRES   REMARKS
ALAMOSA        FAIR      73  51  46 W18       30.26F
DEL NORTE      FAIR      73  47  40 SW14G21   30.31F
LA VETA PASS   NOT AVBL
SAGUACHE         N/A    N/A N/A N/A MISG        N/A
$$

COZ035-036-038>040-242300-
...NORTHERN COLORADO FRONT RANGE...

CITY           SKY/WX    TMP DP  RH WIND       PRES   REMARKS
DENVER INTL AP PTSUNNY   99  33  10 NE14      30.02F
DMNS CITY PARK   N/A     96  31  10 NE3G10    30.01S
AURORA         PTSUNNY   96  32  10 NE7       30.05F
FRONT RANGE AP PTSUNNY   99  37  12 E7        30.04F
ERIE MUNI ARPT FAIR      93  37  14 NW14G24   30.02R
BOULDER MUN AP FAIR      91  41  17 N13G20    30.03F
CENTENNIAL     FAIR      94  27   9 NE7G17    30.06F
BROOMFIELD     FAIR      90  39  17 N18       30.06S
FORT COLLINS   FAIR      92  42  17 SW14      30.00F
LONGMONT       FAIR      95  38  13 N9G22     30.03F
$$

COZ041-046-047-076>085-087-088-242300-
...PIKES PEAK/PALMER DIVIDE AND SOUTHERN FOOTHILLS...

CITY           SKY/WX    TMP DP  RH WIND       PRES   REMARKS
COLO. SPRINGS  PTSUNNY   85  50  29 E12       30.14F
A. F. ACADEMY  FAIR      84  50  31 S14       30.15S
SCHRIEVER AFB  FAIR      82  47  29 E8        30.15F
CHEYENNE MTN   PTSUNNY   81  45  27 NE6       30.15S
ELLICOTT       NOT AVBL
FALCON           N/A     82  44  26 S12G21    30.21S
FORT CARSON    FAIR      90  47  22 E5        30.10F
LIMON          FAIR      89  48  24 S17G24    30.06F
MONUMENT HILL  LGT RAIN  70  52  52 S12       30.24R
CANON CITY     SUNNY     93  52  24 E10G16    30.04F
WALSENBURG     FAIR      90  39  17 NE5       30.10F
TRINIDAD       FAIR      92  36  14 SE9G17    30.09F
$$

COZ042>045-048>051-090-091-242300-
...NORTHEAST COLORADO...

CITY           SKY/WX    TMP DP  RH WIND       PRES   REMARKS
GREELEY ARPT   FAIR     100  40  12 S7        29.97F
AKRON          FAIR      95  45  17 SE13      29.98F
BURLINGTON     FAIR      93  54  26 S17G24    30.01F
WRAY           NOT AVBL
YUMA           NOT AVBL
STERLING       FAIR      95  54  24 S6        29.90F
HOLYOKE        FAIR      99  54  22 S18G24    29.93F
FORT MORGAN    FAIR     100  42  13 S15G21    29.95F
$$

COZ086-089-092>099-242300-
...SOUTHEAST COLORADO...

CITY           SKY/WX    TMP DP  RH WIND       PRES   REMARKS
PUEBLO         FAIR      98  47  17 SE9       29.98F
LA JUNTA       FAIR      98  43  15 SE8G20    29.97F
LAMAR          FAIR      96  57  27 S17G23    29.95F
SPRINGFIELD      N/A     92  57  30 S20       30.03F
$$




USA.gov is the U.S. government's official web portal to all federal, state and local government web resources and services.